{"data":{"norad_id":48472,"epoch":"2026-05-25T04:49:22.924992Z","epoch_age_seconds":64474,"freshness":"FRESH","line1":"1 48472U 21040AW  26145.20095978  .00016619  00000+0  98936-3 0  9990","line2":"2 48472  53.0597 206.2418 0001903 353.0713   7.0252 15.11348805278047","mean_motion":15.11348805,"eccentricity":0.0001903,"inclination_deg":53.0597,"raan_deg":206.2418,"arg_perigee_deg":353.0713,"mean_anomaly_deg":7.0252,"bstar":0.00098936,"rev_number":27804,"period_min":95.279130485037,"perigee_km":530.7705701693,"apogee_km":533.40060088535,"semimajor_km":6910.2225855273,"source":"CELESTRAK","updated_at":"2026-05-25T13:38:16.721657Z"}}